User: anonymous   Login
Location: Mount Wilson Observatory
(34.2257°N, 118.0571°W)
Time: 03:52:10
(UTC-07:00)
Language:

ATLAS 3B CENTAUR R/B - Orbit

View from above orbital plane
View from above orbital plane
View from above satellite
View from above satellite

Ground track
Ground track

The orbit data is extracted from the following two-line orbital elements,

1 28118U 03057B   18175.12689789  .00064470 -40802-6  83015-3 0  9999
2 28118  28.1023 180.6850 2825916 146.0914 235.7409  9.83771617325463
Epoch (UTC): 24 June 2018 03:02:43
Eccentricity: 0.2825916
inclination: 28.1023°
perigee height: 222 km
apogee height: 5422 km
right ascension of ascending node: 180.6850°
argument of perigee: 146.0914°
revolutions per day: 9.83771617
mean anomaly at epoch: 235.7409°
orbit number at epoch: 32546

The dashed part of the orbit path shows where the satellite is in the earth's shadow,  

DLR